Terug naar catalogus

CZ-6A DEB

ActiefPO
NORAD 54973·DEBRIS·🇨🇳 China

Gelanceerd Nov 11, 2022 vanaf Taiyuan Satellite Launch Center

Loading…

Volgende Passages (komende 24 uur)

TLE

VersSource: Space-Track

Epoch: Sep 14, 2026, 03:36 UTC

1 54973U 22151TN  26257.15028242  .00013703  00000-0  23468-2 0  9994
2 54973  98.7597 317.7974 0009167 132.5974 227.6004 14.68896112201175

Volg CZ-6A DEB in realtime met AllMySat

Download on the App Store